| time (UTC) | temp F | wind direction | speed MPH | gust MPH | rain 1hr in | rain 24hr in | rain mn in | humidity % | barometer mb |
| 20260508094735 | 50 | 240 | 9.0 | 11.0 | 0.00 | 0.00 | 0.00 | 61 | 1027.0 |
| 20260508092735 | 50 | 251 | 8.0 | 9.0 | 0.00 | 0.00 | 0.00 | 59 | 1027.0 |
| 20260508084734 | 49 | 297 | 9.0 | 11.0 | 0.00 | 0.00 | 0.00 | 56 | 1027.0 |
| 20260508082734 | 50 | 297 | 9.0 | 11.0 | 0.00 | 0.00 | 0.00 | 51 | 1027.0 |
| 20260508080735 | 49 | 301 | 8.0 | 10.0 | 0.00 | 0.00 | 0.00 | 47 | 1027.0 |
| 20260508074735 | 50 | 23 | 7.0 | 12.0 | 0.00 | 0.00 | 0.00 | 44 | 1026.9 |
| 20260508072734 | 50 | 29 | 9.0 | 13.0 | 0.00 | 0.00 | 0.00 | 40 | 1026.6 |
| 20260508070735 | 49 | 45 | 8.0 | 11.0 | 0.00 | 0.00 | 0.00 | 43 | 1026.4 |
| 20260508064734 | 48 | 43 | 9.0 | 12.0 | 0.00 | 0.00 | 0.00 | 45 | 1026.3 |
| 20260508062734 | 47 | 40 | 9.0 | 13.0 | 0.00 | 0.00 | 0.00 | 47 | 1026.1 |
| 20260508060735 | 46 | 45 | 9.0 | 11.0 | 0.00 | 0.00 | 0.00 | 53 | 1025.9 |
| 20260508054735 | 45 | 53 | 9.0 | 14.0 | 0.00 | 0.00 | 0.00 | 54 | 1025.7 |
| 20260508052735 | 44 | 37 | 7.0 | 11.0 | 0.00 | 0.00 | 0.00 | 56 | 1025.6 |
| 20260508050734 | 43 | 34 | 6.0 | 9.0 | 0.00 | 0.00 | 0.00 | 58 | 1025.4 |
| 20260508044735 | 42 | 40 | 4.0 | 5.0 | 0.00 | 0.00 | 0.00 | 62 | 1025.3 |
| 20260508042734 | 41 | 22 | 5.0 | 6.0 | 0.00 | 0.00 | 0.00 | 65 | 1025.1 |
| 20260508040734 | 41 | 7 | 6.0 | 10.0 | 0.00 | 0.00 | 0.00 | 69 | 1024.3 |
| 20260508034734 | 41 | 23 | 5.0 | 7.0 | 0.00 | 0.00 | 0.00 | 69 | 1024.7 |
| 20260508032734 | 41 | 7 | 6.0 | 10.0 | 0.00 | 0.00 | 0.00 | 69 | 1024.3 |
| 20260508030735 | 41 | 9 | 9.0 | 12.0 | 0.00 | 0.00 | 0.00 | 66 | 1023.7 |
| 20260508024734 | 41 | 9 | 6.0 | 10.0 | 0.00 | 0.00 | 0.00 | 68 | 1024.1 |
| 20260508022733 | 41 | 9 | 9.0 | 12.0 | 0.00 | 0.00 | 0.00 | 66 | 1023.7 |
| 20260508020734 | 41 | 4 | 11.0 | 14.0 | 0.00 | 0.00 | 0.00 | 69 | 1023.4 |
| 20260508014734 | 41 | 5 | 11.0 | 13.0 | 0.00 | 0.00 | 0.00 | 71 | 1023.3 |
| 20260508010734 | 41 | 359 | 11.0 | 14.0 | 0.00 | 0.00 | 0.00 | 68 | 1022.8 |
| 20260508004734 | 42 | 356 | 13.0 | 15.0 | 0.00 | 0.00 | 0.00 | 68 | 1022.6 |
| 20260508002734 | 42 | 351 | 12.0 | 15.0 | 0.00 | 0.00 | 0.00 | 67 | 1022.3 |
| 20260507234735 | 42 | 358 | 12.0 | 15.0 | 0.00 | 0.00 | 0.00 | 66 | 1021.9 |
| 20260507232733 | 43 | 354 | 12.0 | 15.0 | 0.00 | 0.00 | 0.00 | 61 | 1021.6 |
| 20260507230734 | 44 | 348 | 13.0 | 17.0 | 0.00 | 0.00 | 0.00 | 58 | 1021.3 |
| 20260507224732 | 44 | 352 | 13.0 | 16.0 | 0.00 | 0.00 | 0.00 | 52 | 1021.1 |
| 20260507222734 | 45 | 353 | 14.0 | 18.0 | 0.00 | 0.00 | 0.00 | 52 | 1020.9 |
| 20260507220733 | 45 | 355 | 13.0 | 16.0 | 0.00 | 0.00 | 0.00 | 51 | 1020.8 |
| 20260507214733 | 45 | 349 | 13.0 | 16.0 | 0.00 | 0.00 | 0.00 | 50 | 1020.6 |
| 20260507212732 | 46 | 347 | 15.0 | 19.0 | 0.00 | 0.00 | 0.00 | 46 | 1020.2 |
| 20260507210732 | 46 | 349 | 14.0 | 17.0 | 0.00 | 0.00 | 0.00 | 45 | 1020.0 |
| 20260507204733 | 46 | 352 | 13.0 | 17.0 | 0.00 | 0.00 | 0.00 | 46 | 1019.7 |
| 20260507202732 | 47 | 349 | 13.0 | 16.0 | 0.00 | 0.00 | 0.00 | 44 | 1019.4 |
| 20260507200734 | 47 | 342 | 15.0 | 17.0 | 0.00 | 0.00 | 0.00 | 47 | 1019.2 |
| 20260507194732 | 47 | 328 | 15.0 | 18.0 | 0.00 | 0.00 | 0.00 | 45 | 1018.9 |
| 20260507192732 | 48 | 326 | 15.0 | 18.0 | 0.00 | 0.00 | 0.00 | 44 | 1018.5 |
| 20260507190732 | 48 | 322 | 16.0 | 20.0 | 0.00 | 0.00 | 0.00 | 44 | 1018.2 |
| 20260507184732 | 48 | 320 | 17.0 | 23.0 | 0.00 | 0.00 | 0.00 | 43 | 1018.0 |
| 20260507182731 | 49 | 316 | 19.0 | 22.0 | 0.00 | 0.00 | 0.00 | 41 | 1017.7 |
| 20260507180731 | 49 | 316 | 17.0 | 21.0 | 0.00 | 0.00 | 0.00 | 43 | 1017.6 |
| 20260507174732 | 49 | 310 | 17.0 | 21.0 | 0.00 | 0.00 | 0.00 | 44 | 1017.4 |
| 20260507172731 | 49 | 304 | 17.0 | 23.0 | 0.00 | 0.00 | 0.00 | 43 | 1017.2 |
| 20260507170731 | 50 | 308 | 15.0 | 19.0 | 0.00 | 0.00 | 0.00 | 43 | 1017.2 |
| 20260507164732 | 51 | 303 | 18.0 | 24.0 | 0.00 | 0.00 | 0.00 | 42 | 1017.1 |
| 20260507162732 | 48 | 276 | 18.0 | 21.0 | 0.00 | 0.00 | 0.00 | 61 | 1017.0 |
| 20260507160732 | 49 | 262 | 16.0 | 18.0 | 0.00 | 0.00 | 0.00 | 60 | 1016.8 |
| 20260507154731 | 49 | 258 | 15.0 | 17.0 | 0.00 | 0.00 | 0.00 | 65 | 1016.8 |
| 20260507152731 | 49 | 257 | 15.0 | 16.0 | 0.00 | 0.00 | 0.00 | 68 | 1016.8 |
| 20260507150733 | 49 | 255 | 15.0 | 17.0 | 0.00 | 0.00 | 0.00 | 68 | 1016.9 |
| 20260507140732 | 49 | 262 | 12.0 | 13.0 | 0.00 | 0.00 | 0.00 | 68 | 1016.7 |
| 20260507134733 | 47 | 267 | 12.0 | 13.0 | 0.00 | 0.00 | 0.00 | 73 | 1016.7 |
| 20260507130733 | 49 | 254 | 10.0 | 12.0 | 0.00 | 0.00 | 0.00 | 63 | 1016.6 |
| 20260507124731 | 49 | 242 | 10.0 | 11.0 | 0.00 | 0.00 | 0.00 | 64 | 1016.6 |
| 20260507122730 | 49 | 246 | 9.0 | 11.0 | 0.00 | 0.00 | 0.00 | 68 | 1016.5 |
| 20260507120732 | 47 | 208 | 6.0 | 7.0 | 0.00 | 0.00 | 0.00 | 73 | 1016.5 |
| 20260507114731 | 47 | 214 | 6.0 | 7.0 | 0.00 | 0.00 | 0.00 | 69 | 1016.6 |
| 20260507112730 | 47 | 213 | 5.0 | 6.0 | 0.00 | 0.00 | 0.00 | 67 | 1016.5 |
| 20260507110730 | 47 | 216 | 5.0 | 6.0 | 0.00 | 0.00 | 0.00 | 63 | 1016.5 |
| 20260507104729 | 50 | 235 | 5.0 | 6.0 | 0.00 | 0.00 | 0.00 | 61 | 1016.4 |
| 20260507102730 | 48 | 184 | 3.0 | 4.0 | 0.00 | 0.00 | 0.00 | 58 | 1016.2 |
| 20260507100730 | 48 | 146 | 6.0 | 7.0 | 0.00 | 0.00 | 0.00 | 58 | 1016.1 |